Hourly Data Report for August 25, 2020

TORONTO CITY
ONTARIO
Current Station Operator: ECCC - MSC

43°40'00.000" N
79°24'00.000" W
112.50 m
6158355
71508
XTO

Download Data

Hourly Data (August 2020)
Hourly Data Report for August 25, 2020
TIME
LST
Temp Definition
°C
Dew Point Definition
°C
Rel Hum Definition
%
Precip. Amount Definition
mm

Wind Dir Definition
10's deg

Wind Spd Definition
km/h
Visibility Definition
km
Stn Press Definition
kPa
Hmdx Definition


Wind Chill Definition


Weather Definition


00:00 26.0 19.3 67 0.0       99.69 33   LegendNANA
01:00 25.8 19.2 67 0.0       99.67 33   LegendNANA
02:00 24.8 18.7 69 0.0       99.65 31   LegendNANA
03:00 23.5 18.8 75 0.0       99.72 30   LegendNANA
04:00 22.3 18.9 81 0.0       99.73 29   LegendNANA
05:00 23.1 18.5 76 0.0       99.73 29   LegendNANA
06:00 22.9 17.0 69 0.0       99.79 28   LegendNANA
07:00 23.5 17.4 68 0.0       99.84 29   LegendNANA
08:00 24.4 17.2 64 0.0       99.82 30   LegendNANA
09:00 25.6 17.1 59 0.0       99.84 31   LegendNANA
10:00 26.2 14.0 47 0.0       99.90 30   LegendNANA
11:00 26.8 10.0 35 0.0       99.92 28   LegendNANA
12:00 26.8 8.4 31 0.0       99.93 27   LegendNANA
13:00 27.2 9.0 32 0.0       99.97 28   LegendNANA
14:00 27.5 9.5 32 0.0       99.98 29   LegendNANA
15:00 26.8 9.4 34 0.0       99.99 28   LegendNANA
16:00 26.4 10.9 38 0.0       99.98 28   LegendNANA
17:00 25.4 11.6 42 0.0       99.99 27   LegendNANA
18:00 24.9 11.7 44 0.0       100.01 27   LegendNANA
19:00 23.5 12.0 49 0.0       100.08 26   LegendNANA
20:00 22.7 12.6 53 0.0       100.16 25   LegendNANA
21:00 22.3 11.9 52 0.0       100.23 25   LegendNANA
22:00 20.8 12.8 60 0.0       100.27     LegendNANA
23:00 20.0 11.9 60 0.0       100.31     LegendNANA

Notes on Data Quality.

Legend

  • E = Estimated
  • M = Missing
  • NA = Not Available*
  • [empty] = Indicates an unobserved value
Date modified: